Weather History for Lancaster, OH

Change the Weather History Date:

Monday, September 3, 2012

  Actual Average Record
Temperature  
Mean Temperature 74 °F -  
Max Temperature 80 °F 82 °F 101 °F (1953)
Min Temperature 70 °F 56 °F 39 °F (1946)
Cooling Degree Days 10    
Growing Degree Days 24 (Base 50)    
Moisture  
Dew Point 70 °F    
Average Humidity 89    
Maximum Humidity 100    
Minimum Humidity 74    
Precipitation  
Precipitation 1.23 in - - ()
Sea Level Pressure  
Sea Level Pressure 29.93 in    
Wind  
Wind Speed 9 mph (SE)    
Max Wind Speed 26 mph    
Max Gust Speed 33 mph    
Visibility 8 miles    
Events Rain , Thunderstorm    
Averages and records for this station are not official NWS values.
T = Trace of Precipitation, MM = Missing Value Source: NWS Daily Summary

Daily Weather History Graph

Daily Weather History Graph

Search for Another Location

Airport:

Trip Planner

Search our weather history database for the weather conditions in past years. The results will help you decide how hot, cold, wet, or windy it might be!

Date:

Astronomy

Sep. 03, 2012 Rise Set
Actual Time 7:00 AM EDT 7:57 PM EDT
Civil Twilight 6:33 AM EDT 8:25 PM EDT
Nautical Twilight 6:00 AM EDT 8:58 PM EDT
Astronomical Twilight 5:26 AM EDT 9:31 PM EDT
Moon 9:17 PM EDT (9/3) 10:07 AM EDT (9/3)
Length of Visible Light 13h 51m
Length of Day
12h 56m
Waning Gibbous, 90% of the Moon is Illuminated
Sep 3
Waning Gibbous
Sep 8
Last Quarter
Sep 15
New
Sep 22
First Quarter
Sep 29
Full

Hourly Weather History & Observations

Time (EDT) Temp. Dew Point Humidity Pressure Visibility Wind Dir Wind Speed Gust Speed Precip Events Conditions
12:53 AM 75.0 °F 71.1 °F 87% 29.91 in 10.0 mi ESE 5.8 mph - N/A   Scattered Clouds
1:31 AM 73.4 °F 71.6 °F 94% 29.95 in 2.0 mi SE 15.0 mph 25.3 mph 0.13 in Rain Heavy Rain
1:33 AM 73.4 °F 71.6 °F 94% 29.95 in 1.5 mi SE 20.7 mph 29.9 mph 0.20 in Rain Heavy Rain
1:36 AM 73.4 °F 71.6 °F 94% 29.95 in 0.8 mi SE 26.5 mph 33.4 mph 0.34 in Rain Heavy Rain
1:46 AM 71.6 °F 71.6 °F 100% 29.96 in 0.8 mi SE 16.1 mph 33.4 mph 0.74 in Rain , Thunderstorm Heavy Thunderstorms and Rain
1:51 AM 71.6 °F 69.8 °F 94% 29.96 in 1.0 mi SE 12.7 mph - 0.90 in Rain , Thunderstorm Heavy Thunderstorms and Rain
1:53 AM 71.1 °F 70.0 °F 96% 29.94 in 1.0 mi ESE 11.5 mph - 0.94 in Rain , Thunderstorm Heavy Thunderstorms and Rain
2:01 AM 71.6 °F 69.8 °F 94% 29.94 in 2.0 mi East 8.1 mph - 0.05 in Rain , Thunderstorm Heavy Rain
2:03 AM 71.6 °F 69.8 °F 94% 29.94 in 3.0 mi East 6.9 mph - 0.06 in Rain , Thunderstorm Rain
2:17 AM 71.6 °F 71.6 °F 100% 29.93 in 8.0 mi ESE 6.9 mph - 0.06 in Rain , Thunderstorm Light Rain
2:36 AM 71.6 °F 69.8 °F 94% 29.92 in 5.0 mi SE 3.5 mph - 0.11 in Rain Rain
2:53 AM 70.0 °F 69.1 °F 97% 29.90 in 5.0 mi ENE 3.5 mph - 0.16 in Rain Rain
3:53 AM 70.0 °F 69.1 °F 97% 29.91 in 10.0 mi South 3.5 mph - 0.01 in   Scattered Clouds
4:12 AM 71.6 °F 69.8 °F 94% 29.93 in 10.0 mi Calm Calm - N/A   Mostly Cloudy
4:27 AM 71.6 °F 68.0 °F 88% 29.93 in 10.0 mi SSE 3.5 mph - N/A   Scattered Clouds
4:53 AM 70.0 °F 69.1 °F 97% 29.91 in 9.0 mi Calm Calm - N/A   Scattered Clouds
5:53 AM 70.0 °F 69.1 °F 97% 29.91 in 6.0 mi ENE 3.5 mph - 0.01 in Rain Light Rain
6:53 AM 71.1 °F 69.1 °F 93% 29.92 in 7.0 mi East 3.5 mph - 0.02 in Rain Light Rain
7:53 AM 71.1 °F 69.1 °F 93% 29.93 in 6.0 mi ESE 4.6 mph - 0.06 in Rain Light Rain
8:53 AM 72.0 °F 69.1 °F 91% 29.93 in 10.0 mi ESE 5.8 mph - 0.00 in   Mostly Cloudy
9:08 AM 73.4 °F 69.8 °F 88% 29.95 in 10.0 mi ESE 6.9 mph - N/A   Mostly Cloudy
9:53 AM 73.0 °F 70.0 °F 90% 29.94 in 10.0 mi ESE 8.1 mph - N/A   Overcast
10:24 AM 73.4 °F 69.8 °F 88% 29.96 in 10.0 mi ESE 8.1 mph - N/A   Mostly Cloudy
10:53 AM 75.0 °F 71.1 °F 87% 29.95 in 10.0 mi SE 9.2 mph - N/A   Partly Cloudy
11:40 AM 77.0 °F 69.8 °F 78% 29.96 in 10.0 mi SSE 10.4 mph - N/A   Overcast
11:53 AM 75.9 °F 70.0 °F 82% 29.95 in 10.0 mi SSE 10.4 mph 17.3 mph N/A   Overcast
12:53 PM 77.0 °F 71.1 °F 82% 29.94 in 10.0 mi SSE 10.4 mph - N/A   Overcast
1:03 PM 77.0 °F 69.8 °F 78% 29.96 in 10.0 mi SSE 9.2 mph - N/A   Overcast
1:53 PM 78.1 °F 71.1 °F 79% 29.94 in 10.0 mi ESE 8.1 mph - N/A   Overcast
2:53 PM 77.0 °F 71.1 °F 82% 29.93 in 10.0 mi SE 8.1 mph - 0.01 in   Overcast
3:53 PM 75.9 °F 71.1 °F 85% 29.92 in 10.0 mi SE 9.2 mph - N/A   Overcast
4:53 PM 78.1 °F 71.1 °F 79% 29.90 in 10.0 mi East 8.1 mph - N/A   Overcast
5:53 PM 79.0 °F 70.0 °F 74% 29.89 in 10.0 mi SSE 4.6 mph - N/A   Clear
6:53 PM 78.1 °F 71.1 °F 79% 29.89 in 10.0 mi Calm Calm - N/A   Overcast
7:53 PM 77.0 °F 70.0 °F 79% 29.89 in 10.0 mi Calm Calm - N/A   Overcast
8:42 PM 75.2 °F 71.6 °F 89% 29.91 in 10.0 mi Calm Calm - N/A   Overcast
8:53 PM 75.9 °F 71.1 °F 85% 29.90 in 10.0 mi Calm Calm - N/A   Overcast
9:53 PM 75.0 °F 72.0 °F 90% 29.91 in 10.0 mi East 6.9 mph - N/A   Overcast
10:17 PM 73.4 °F 71.6 °F 94% 29.94 in 8.0 mi SE 9.2 mph - 0.02 in Rain Light Rain
10:35 PM 73.4 °F 71.6 °F 94% 29.94 in 10.0 mi SSE 6.9 mph - 0.02 in   Overcast
10:53 PM 73.0 °F 70.0 °F 90% 29.92 in 10.0 mi South 9.2 mph - 0.02 in   Overcast
11:23 PM 73.4 °F 69.8 °F 88% 29.94 in 10.0 mi SSE 4.6 mph - 0.00 in   Overcast
11:53 PM 72.0 °F 70.0 °F 93% 29.92 in 9.0 mi SSE 6.9 mph - 0.00 in   Overcast